Tracking 28794 objects as of 19-Apr-2024
HD Live streaming from Space Station
objects crossing your sky now

THOR ABLESTAR R/B

Track THOR ABLESTAR R/B now!
10-day predictions


NORAD ID: 204
Int'l Code: 1961-031C
Perigee: 952.0 km
Apogee: 1,097.6 km
Inclination: 32.4 °
Period: 105.5 minutes
Semi major axis: 7395 km
RCS: 3.5845 m2 (large)
Launch date: November 15, 1961
Source: United States (US)
Launch site: AIR FORCE EASTERN TEST RANGE (AFETR)

Note: This is a ROCKET BODY
Your satellite tracking list
Your tracking list is empty




NASA's NSSDC Master Catalog

Two Line Element Set (TLE):
1 00204U 61031C   24110.23647081  .00000151  00000-0  15492-3 0  9997
2 00204  32.4429  57.7041 0098427  66.9952 294.1018 13.64974838115165
Source of the keplerian elements: AFSPC